Radiation Dose at Monitoring Post of Fukushima Daini Nuclear Power Station
Date,Time,MP-1(microSv/h),MP-2(microSv/h),MP-3(microSv/h),MP-4(microSv/h),MP-5(microSv/h),MP-6(microSv/h),MP-7(microSv/h),Wind Direction,Wind Velocity(m/s),Rain
2018/02/24,00:00,0.338,0.209,0.343,0.326,0.307,0.170,0.102,west,2.6,No
2018/02/24,00:10,0.338,0.210,0.345,0.327,0.307,0.170,0.102,west-northwest,2.0,No
2018/02/24,00:20,0.338,0.210,0.345,0.327,0.305,0.171,0.102,north,0.8,No
2018/02/24,00:30,0.338,0.209,0.344,0.327,0.306,0.171,0.103,north-northeast,1.7,No
2018/02/24,00:40,0.338,0.210,0.345,0.327,0.307,0.171,0.102,north-northeast,3.7,No
2018/02/24,00:50,0.339,0.209,0.344,0.325,0.305,0.171,0.102,north,5.1,No
2018/02/24,01:00,0.338,0.209,0.344,0.326,0.306,0.171,0.102,north,4.5,No
2018/02/24,01:10,0.336,0.210,0.345,0.326,0.307,0.172,0.102,north,4.5,No
2018/02/24,01:20,0.337,0.210,0.346,0.327,0.307,0.171,0.102,north,4.7,No
2018/02/24,01:30,0.337,0.209,0.345,0.326,0.307,0.171,0.102,north,3.4,No
2018/02/24,01:40,0.339,0.210,0.344,0.326,0.306,0.171,0.103,north,2.8,No
2018/02/24,01:50,0.338,0.210,0.345,0.326,0.306,0.172,0.104,north,4.1,No
2018/02/24,02:00,0.336,0.210,0.345,0.326,0.307,0.172,0.102,north-northwest,3.5,No
2018/02/24,02:10,0.337,0.210,0.345,0.327,0.307,0.172,0.103,north-northwest,4.2,No
2018/02/24,02:20,0.338,0.210,0.344,0.326,0.307,0.170,0.102,north-northwest,4.5,No
2018/02/24,02:30,0.337,0.210,0.345,0.327,0.306,0.171,0.103,north-northwest,4.7,No
2018/02/24,02:40,0.339,0.210,0.345,0.327,0.306,0.173,0.103,north-northwest,3.2,No
2018/02/24,02:50,0.337,0.210,0.344,0.326,0.307,0.172,0.102,north-northwest,2.7,No
2018/02/24,03:00,0.338,0.209,0.345,0.326,0.306,0.171,0.103,north-northwest,1.9,No
2018/02/24,03:10,0.337,0.210,0.346,0.327,0.306,0.171,0.103,north,1.2,No
2018/02/24,03:20,0.338,0.209,0.346,0.326,0.306,0.172,0.103,-,CALM,No
2018/02/24,03:30,0.337,0.210,0.346,0.327,0.305,0.171,0.102,-,CALM,No
2018/02/24,03:40,0.338,0.210,0.346,0.326,0.306,0.172,0.102,-,CALM,No
2018/02/24,03:50,0.337,0.209,0.346,0.326,0.307,0.171,0.103,west-southwest,0.8,No
2018/02/24,04:00,0.337,0.210,0.346,0.327,0.306,0.171,0.103,west-southwest,2.4,No
2018/02/24,04:10,0.339,0.210,0.345,0.326,0.306,0.171,0.103,west-southwest,3.8,No
2018/02/24,04:20,0.335,0.210,0.344,0.326,0.306,0.171,0.103,west-northwest,2.0,No
2018/02/24,04:30,0.337,0.210,0.346,0.326,0.306,0.171,0.102,west-northwest,2.9,No
2018/02/24,04:40,0.338,0.209,0.344,0.327,0.307,0.171,0.102,northwest,3.6,No
2018/02/24,04:50,0.338,0.210,0.345,0.325,0.307,0.171,0.103,northwest,4.0,No
2018/02/24,05:00,0.338,0.209,0.344,0.327,0.307,0.172,0.103,west-northwest,3.9,No
2018/02/24,05:10,0.338,0.210,0.345,0.326,0.306,0.171,0.103,west-northwest,4.7,No
2018/02/24,05:20,0.337,0.209,0.346,0.326,0.306,0.171,0.103,west-northwest,4.6,No
2018/02/24,05:30,0.338,0.211,0.346,0.327,0.306,0.170,0.103,west-northwest,5.7,No
2018/02/24,05:40,0.337,0.210,0.345,0.327,0.307,0.172,0.102,west-northwest,6.0,No
2018/02/24,05:50,0.338,0.210,0.345,0.325,0.306,0.171,0.102,west-northwest,6.0,No
2018/02/24,06:00,0.338,0.211,0.345,0.327,0.306,0.172,0.102,west-northwest,5.2,No
2018/02/24,06:10,0.338,0.210,0.345,0.326,0.305,0.170,0.102,west-northwest,4.9,No
2018/02/24,06:20,0.337,0.210,0.346,0.326,0.306,0.170,0.103,northwest,3.2,No
2018/02/24,06:30,0.337,0.209,0.344,0.326,0.307,0.171,0.103,north-northwest,2.7,No
2018/02/24,06:40,0.338,0.209,0.344,0.326,0.306,0.171,0.102,northwest,2.6,No
2018/02/24,06:50,0.337,0.209,0.345,0.327,0.306,0.171,0.102,west-southwest,0.9,No
2018/02/24,07:00,0.338,0.211,0.345,0.325,0.305,0.170,0.102,-,CALM,No
2018/02/24,07:10,0.337,0.209,0.344,0.325,0.306,0.171,0.102,north,1.6,No
2018/02/24,07:20,0.337,0.210,0.345,0.326,0.306,0.171,0.102,north,3.5,No
2018/02/24,07:30,0.336,0.210,0.346,0.327,0.307,0.171,0.102,north-northeast,2.1,No
2018/02/24,07:40,0.338,0.210,0.345,0.327,0.306,0.170,0.102,south,1.7,No
2018/02/24,07:50,0.338,0.209,0.346,0.326,0.307,0.171,0.102,south-southeast,2.7,No
2018/02/24,08:00,0.337,0.209,0.346,0.326,0.306,0.171,0.103,south,2.3,No
2018/02/24,08:10,0.338,0.210,0.345,0.327,0.307,0.171,0.102,south,0.9,No
2018/02/24,08:20,0.338,0.210,0.345,0.326,0.306,0.171,0.103,south,3.5,No
2018/02/24,08:30,0.337,0.209,0.344,0.325,0.306,0.172,0.103,south,4.2,No
2018/02/24,08:40,0.337,0.209,0.345,0.327,0.308,0.172,0.102,south,6.9,No
2018/02/24,08:50,0.337,0.209,0.346,0.327,0.307,0.172,0.103,south,6.4,No
2018/02/24,09:00,0.338,0.210,0.346,0.328,0.307,0.171,0.102,south-southwest,6.6,No
2018/02/24,09:10,0.337,0.208,0.346,0.325,0.307,0.172,0.102,south-southwest,10.1,No
2018/02/24,09:20,0.339,0.209,0.346,0.326,0.308,0.171,0.102,south,10.1,No
2018/02/24,09:30,0.338,0.209,0.345,0.326,0.307,0.172,0.102,south-southwest,9.7,No
2018/02/24,09:40,0.336,0.208,0.345,0.326,0.307,0.172,0.103,south-southwest,11.1,No
2018/02/24,09:50,0.337,0.210,0.345,0.325,0.310,0.171,0.102,south,8.9,No
2018/02/24,10:00,0.336,0.209,0.345,0.327,0.309,0.171,0.101,south-southwest,9.5,No
2018/02/24,10:10,0.336,0.208,0.346,0.326,0.309,0.171,0.102,south,9.5,No
2018/02/24,10:20,0.338,0.210,0.345,0.326,0.308,0.171,0.103,south,11.2,No
2018/02/24,10:30,0.336,0.209,0.345,0.327,0.306,0.171,0.102,south,10.9,No
2018/02/24,10:40,0.339,0.209,0.344,0.325,0.307,0.171,0.102,south,9.5,No
2018/02/24,10:50,0.337,0.209,0.344,0.326,0.307,0.171,0.101,south,10.6,No
2018/02/24,11:00,0.337,0.209,0.344,0.327,0.307,0.171,0.103,south,12.0,No
2018/02/24,11:10,0.338,0.209,0.344,0.327,0.309,0.172,0.102,south,12.6,No
2018/02/24,11:20,0.336,0.209,0.344,0.327,0.308,0.170,0.102,south,10.6,No
2018/02/24,11:30,0.336,0.210,0.346,0.327,0.307,0.172,0.102,south,11.4,No
2018/02/24,11:40,0.338,0.209,0.343,0.326,0.308,0.172,0.103,south,10.4,No
2018/02/24,11:50,0.336,0.209,0.344,0.326,0.308,0.171,0.102,south,9.8,No
2018/02/24,12:00,0.337,0.210,0.346,0.327,0.306,0.172,0.103,south,10.3,No
2018/02/24,12:10,0.337,0.209,0.344,0.327,0.310,0.171,0.102,south,11.4,No
2018/02/24,12:20,0.337,0.210,0.343,0.327,0.308,0.173,0.102,south,12.0,No
2018/02/24,12:30,0.337,0.210,0.345,0.329,0.307,0.171,0.103,south,12.2,No
2018/02/24,12:40,0.337,0.210,0.344,0.326,0.309,0.171,0.103,south,12.3,No
2018/02/24,12:50,0.336,0.211,0.344,0.327,0.308,0.171,0.102,south,11.2,No
2018/02/24,13:00,0.337,0.209,0.347,0.328,0.309,0.172,0.103,south-southwest,7.9,No
2018/02/24,13:10,0.337,0.209,0.343,0.327,0.309,0.172,0.102,south,7.3,No
2018/02/24,13:20,0.337,0.209,0.345,0.327,0.305,0.172,0.103,south-southwest,7.7,No
2018/02/24,13:30,0.336,0.209,0.342,0.326,0.310,0.170,0.103,south-southwest,9.2,No
2018/02/24,13:40,0.337,0.210,0.345,0.326,0.306,0.171,0.102,south-southwest,4.3,No
2018/02/24,13:50,0.335,0.211,0.344,0.327,0.309,0.171,0.102,west-southwest,6.5,No
2018/02/24,14:00,0.338,0.210,0.345,0.325,0.307,0.171,0.102,west-southwest,6.8,No
2018/02/24,14:10,0.336,0.208,0.345,0.327,0.307,0.171,0.102,west,6.4,No
2018/02/24,14:20,0.336,0.210,0.343,0.326,0.309,0.171,0.102,west,5.9,No
2018/02/24,14:30,0.336,0.209,0.346,0.327,0.307,0.172,0.102,west-southwest,5.6,No
2018/02/24,14:40,0.335,0.210,0.343,0.328,0.310,0.172,0.102,west-southwest,6.6,No
2018/02/24,14:50,0.339,0.210,0.345,0.326,0.307,0.172,0.102,west,8.4,Yes
2018/02/24,15:00,0.337,0.211,0.345,0.328,0.308,0.172,0.102,west-northwest,8.6,Yes
2018/02/24,15:10,0.339,0.210,0.346,0.328,0.310,0.174,0.104,west-northwest,8.6,Yes
2018/02/24,15:20,0.341,0.212,0.346,0.328,0.310,0.175,0.105,west,7.7,Yes
2018/02/24,15:30,0.339,0.213,0.349,0.330,0.311,0.175,0.104,west,9.0,Yes
2018/02/24,15:40,0.341,0.213,0.349,0.328,0.311,0.174,0.105,west,8.7,Yes
2018/02/24,15:50,0.341,0.213,0.347,0.330,0.310,0.174,0.105,west,6.7,No
2018/02/24,16:00,0.341,0.213,0.348,0.330,0.310,0.174,0.105,west,8.4,No
2018/02/24,16:10,0.340,0.211,0.349,0.330,0.312,0.174,0.104,west,7.8,No
2018/02/24,16:20,0.340,0.211,0.346,0.329,0.309,0.174,0.103,west-northwest,6.6,Yes
2018/02/24,16:30,0.341,0.211,0.345,0.328,0.309,0.173,0.103,west,6.7,Yes
2018/02/24,16:40,0.339,0.210,0.346,0.329,0.310,0.173,0.103,west,8.1,No
2018/02/24,16:50,0.339,0.211,0.347,0.329,0.309,0.173,0.103,west,8.1,No
2018/02/24,17:00,0.340,0.210,0.345,0.327,0.308,0.173,0.103,west,7.6,No
2018/02/24,17:10,0.339,0.210,0.346,0.327,0.309,0.173,0.104,west,7.3,No
2018/02/24,17:20,0.339,0.210,0.346,0.328,0.309,0.172,0.102,west,7.0,No
2018/02/24,17:30,0.338,0.210,0.346,0.327,0.308,0.172,0.103,west,9.5,No
2018/02/24,17:40,0.339,0.209,0.347,0.327,0.309,0.172,0.102,west-northwest,8.6,No
2018/02/24,17:50,0.339,0.211,0.347,0.328,0.306,0.172,0.102,west-northwest,8.1,No
2018/02/24,18:00,0.338,0.210,0.346,0.327,0.308,0.172,0.103,west-northwest,7.3,No
2018/02/24,18:10,0.338,0.210,0.346,0.327,0.309,0.173,0.102,west-northwest,8.2,No
2018/02/24,18:20,0.339,0.210,0.346,0.327,0.308,0.173,0.103,northwest,6.6,No
2018/02/24,18:30,0.338,0.210,0.346,0.328,0.310,0.172,0.102,west-northwest,8.3,No
2018/02/24,18:40,0.337,0.210,0.347,0.328,0.309,0.172,0.103,west,8.8,No
2018/02/24,18:50,0.337,0.210,0.345,0.329,0.308,0.173,0.103,west-northwest,8.1,No
2018/02/24,19:00,0.338,0.209,0.347,0.327,0.308,0.172,0.103,west-northwest,6.2,No
2018/02/24,19:10,0.339,0.210,0.346,0.327,0.309,0.172,0.102,northwest,6.5,No
2018/02/24,19:20,0.340,0.211,0.346,0.328,0.308,0.172,0.103,northwest,5.9,No
2018/02/24,19:30,0.338,0.210,0.346,0.327,0.308,0.173,0.103,west-northwest,5.1,No
2018/02/24,19:40,0.339,0.211,0.347,0.327,0.308,0.171,0.102,west-northwest,4.4,No
2018/02/24,19:50,0.338,0.210,0.345,0.327,0.307,0.172,0.103,west-northwest,5.4,No
2018/02/24,20:00,0.340,0.210,0.345,0.327,0.309,0.172,0.103,west-northwest,4.6,No
2018/02/24,20:10,0.338,0.211,0.347,0.328,0.308,0.172,0.103,west-northwest,4.7,No
2018/02/24,20:20,0.339,0.210,0.345,0.326,0.307,0.171,0.104,west-northwest,6.8,No
2018/02/24,20:30,0.340,0.210,0.347,0.328,0.307,0.172,0.102,northwest,8.1,No
2018/02/24,20:40,0.340,0.210,0.346,0.327,0.307,0.172,0.103,north-northwest,4.6,No
2018/02/24,20:50,0.339,0.209,0.345,0.327,0.308,0.171,0.103,north-northwest,3.5,No
2018/02/24,21:00,0.339,0.210,0.346,0.329,0.307,0.172,0.103,north,3.3,No
2018/02/24,21:10,0.338,0.210,0.347,0.328,0.307,0.172,0.103,north-northeast,3.6,No
2018/02/24,21:20,0.339,0.210,0.345,0.326,0.307,0.172,0.102,north,4.6,No
2018/02/24,21:30,0.338,0.209,0.345,0.327,0.308,0.172,0.103,north-northeast,6.2,No
2018/02/24,21:40,0.340,0.211,0.346,0.328,0.307,0.171,0.102,north,6.0,No
2018/02/24,21:50,0.340,0.210,0.346,0.328,0.308,0.172,0.102,north-northeast,4.5,No
2018/02/24,22:00,0.339,0.210,0.346,0.327,0.308,0.172,0.102,north,6.3,No
2018/02/24,22:10,0.338,0.210,0.346,0.327,0.307,0.172,0.103,north,5.0,No
2018/02/24,22:20,0.338,0.210,0.345,0.327,0.308,0.171,0.102,north,5.5,No
2018/02/24,22:30,0.340,0.211,0.346,0.328,0.308,0.171,0.102,north-northwest,2.2,No
2018/02/24,22:40,0.339,0.211,0.345,0.326,0.308,0.172,0.103,north-northwest,4.8,No
2018/02/24,22:50,0.338,0.210,0.347,0.328,0.306,0.171,0.102,north-northwest,1.3,No
2018/02/24,23:00,0.340,0.210,0.346,0.327,0.307,0.172,0.102,north,4.5,No
2018/02/24,23:10,0.338,0.209,0.346,0.327,0.308,0.172,0.102,north-northwest,1.7,No
2018/02/24,23:20,0.339,0.209,0.345,0.327,0.306,0.172,0.103,northwest,5.6,No
2018/02/24,23:30,0.338,0.210,0.346,0.328,0.307,0.172,0.102,northwest,3.5,No
2018/02/24,23:40,0.338,0.211,0.347,0.327,0.306,0.172,0.102,northwest,3.5,No
2018/02/24,23:50,0.339,0.210,0.345,0.328,0.307,0.172,0.102,northwest,4.1,No
